DW0108 Weather Reports


Display with metric or nautical units.
time (UTC)temp
F
wind
direction
speed
MPH
gust
MPH
rain 1hr
in
rain 24hr
in
rain mn
in
humidity
%
barometer
mb
20260507042817 59 45 2.0 4.0 0.00 0.00 5.64 79 1017.2
20260507041805 60 39 2.0 6.0 0.00 0.00 5.54 78 1017.2
20260507040804 60 37 2.0 4.0 0.00 0.00 5.43 77 1017.2
20260507034838 61 128 3.0 7.0 0.00 0.00 5.24 76 1017.6
20260507033830 61 32 2.0 5.0 0.00 0.00 5.14 76 1017.6
20260507032831 61 100 2.0 4.0 0.00 0.00 5.04 76 1017.6
20260507031832 62 54 2.0 6.0 0.00 0.00 4.94 78 1017.2
20260507030806 62 44 3.0 6.0 0.00 0.00 4.84 78 1017.2
20260507025812 62 46 2.0 4.0 0.00 0.00 4.74 78 1017.2
20260507024841 62 42 2.0 4.0 0.00 0.00 4.64 78 1017.2
20260507023845 62 49 1.0 4.0 0.00 0.00 4.54 78 1016.9
20260507022826 62 69 2.0 4.0 0.00 0.00 4.44 78 1016.5
20260507021814 62 56 1.0 2.0 0.00 0.00 4.34 80 1016.5
20260507015823 62 69 2.0 4.0 0.00 0.00 4.14 79 1016.2
20260507014838 62 46 2.0 3.0 0.00 0.00 4.04 79 1015.9
20260507013819 63 66 2.0 5.0 0.00 0.00 3.94 80 1015.2
20260507012810 63 39 2.0 4.0 0.00 0.00 3.84 81 1015.2
20260507011821 62 45 1.0 3.0 0.00 0.00 3.74 85 1015.2
20260507010839 62 65 1.0 2.0 0.00 0.00 3.64 87 1014.8
20260507005823 63 78 0.0 1.0 0.00 0.00 3.54 87 1014.8
20260507004838 62 70 1.0 2.0 0.00 0.00 3.44 86 1014.8
20260507003836 63 68 2.0 3.0 0.00 0.00 3.34 87 1014.8
20260507001830 63 80 0.0 1.0 0.00 0.00 3.14 86 1014.5
20260506235831 63 76 1.0 3.0 0.00 0.00 2.94 84 1014.2
20260506234845 64 98 1.0 2.0 0.00 0.00 2.84 84 1014.2
20260506233834 63 71 1.0 3.0 0.00 0.00 2.74 85 1014.2
20260506232814 63 79 1.0 2.0 0.00 0.00 2.64 85 1014.2
20260506231812 63 77 1.0 4.0 0.00 0.00 2.54 87 1014.2
20260506230809 63 87 1.0 3.0 0.00 0.00 2.44 87 1013.8
20260506225848 63 65 1.0 3.0 0.00 0.00 2.34 87 1014.2
20260506224847 63 74 1.0 2.0 0.00 0.00 2.24 86 1013.8
20260506223841 63 42 1.0 2.0 0.00 0.00 2.14 86 1013.8
20260506222824 62 60 0.0 2.0 0.00 0.00 2.04 86 1013.8
20260506221831 61 77 1.0 2.0 0.00 0.00 1.94 88 1014.2
20260506220807 61 53 2.0 3.0 0.00 0.00 1.84 89 1013.8
20260506215827 61 37 1.0 3.0 0.00 0.00 1.74 88 1013.8
20260506212806 63 120 2.0 3.0 0.00 0.00 1.59 74 1014.2
20260506211813 63 41 2.0 4.0 0.00 0.00 1.55 73 1014.2
20260506205839 63 213 1.0 3.0 0.00 0.00 1.47 74 1014.2
20260506203817 63 64 2.0 4.0 0.00 0.00 1.39 74 1014.2
20260506201841 63 182 2.0 4.0 0.00 0.00 1.31 74 1014.5
20260506200817 61 150 2.0 5.0 0.00 0.00 1.27 75 1014.8
20260506195847 61 120 2.0 4.0 0.00 0.00 1.23 76 1014.5
20260506194847 61 154 2.0 4.0 0.00 0.00 1.19 76 1014.8
20260506193841 60 142 2.0 5.0 0.00 0.00 1.15 76 1015.2
20260506192821 59 271 2.0 5.0 0.00 0.00 1.11 77 1015.2
20260506191840 59 32 2.0 5.0 0.00 0.00 1.07 78 1015.5
20260506190828 58 118 1.0 3.0 0.00 0.00 1.03 78 1015.2
20260506185842 58 60 2.0 4.0 0.00 0.00 9.94 79 1015.5
20260506183819 57 119 2.0 4.0 0.00 0.00 9.15 80 1015.9
20260506181811 57 283 3.0 6.0 0.00 0.00 8.35 81 1014.8
20260506180821 57 245 4.0 7.0 0.00 0.00 7.95 81 1014.2
20260506175831 57 124 2.0 5.0 0.00 0.00 7.55 81 1014.5
20260506174818 56 126 4.0 6.0 0.00 0.00 7.15 82 1014.5
20260506170849 55 89 3.0 4.0 0.00 0.00 5.55 86 1014.8
20260506165809 54 71 2.0 6.0 0.00 0.00 5.15 87 1014.8
20260506164821 54 59 2.0 6.0 0.00 0.00 4.75 87 1014.8
20260506162810 54 116 2.0 4.0 0.00 0.00 3.95 90 1015.2
20260506161811 54 55 2.0 5.0 0.00 0.00 3.55 90 1015.2
20260506160816 54 31 4.0 6.0 0.00 0.00 3.15 90 1015.5
20260506155828 54 104 3.0 4.0 0.00 0.00 2.75 91 1014.8
20260506154840 54 88 3.0 5.0 0.00 0.00 2.35 92 1014.5
20260506151827 53 123 3.0 5.0 0.00 0.00 1.14 94 1015.2
20260506150831 52 101 2.0 5.0 0.00 0.00 0.75 94 1015.5
20260506145830 52 155 3.0 5.0 0.00 0.00 0.35 93 1015.9
20260506144821 53 110 2.0 4.0 0.00 0.00 0.03 89 1016.5
20260506143836 53 99 3.0 4.0 0.00 0.00 0.00 86 1016.5
20260506141848 53 122 3.0 6.0 0.00 0.00 0.00 86 1014.8
20260506140816 54 118 3.0 6.0 0.00 0.00 0.00 87 1014.5
20260506135845 53 181 3.0 6.0 0.00 0.00 0.00 85 1014.5
20260506134840 53 240 3.0 9.0 0.00 0.00 0.00 85 1015.5
20260506132834 53 246 4.0 6.0 0.00 0.00 0.00 84 1014.5
20260506131806 54 92 3.0 7.0 0.00 0.00 0.00 83 1014.2
20260506130820 54 210 3.0 6.0 0.00 0.00 0.00 83 1014.2
20260506125827 54 51 4.0 7.0 0.00 0.00 0.00 82 1013.8
20260506124808 55 88 3.0 6.0 0.00 0.00 0.00 81 1013.8
20260506123809 55 182 4.0 8.0 0.00 0.00 0.00 80 1013.5
20260506122826 55 159 4.0 7.0 0.00 0.00 0.00 79 1013.5
20260506121810 55 187 3.0 5.0 0.00 0.00 0.00 78 1013.5
20260506120845 56 123 3.0 5.0 0.00 0.00 0.00 78 1013.2
20260506115848 56 93 3.0 6.0 0.00 0.00 0.00 77 1013.2
20260506113837 57 85 3.0 6.0 0.00 0.00 0.00 77 1013.2
20260506112843 57 85 2.0 4.0 0.00 0.00 0.00 77 1012.8
20260506111822 57 61 3.0 6.0 0.00 0.00 0.00 76 1012.8
20260506110819 57 30 4.0 10.0 0.00 0.00 0.00 76 1012.5
20260506105834 58 225 4.0 6.0 0.00 0.00 0.00 78 1012.1
20260506103839 58 90 2.0 4.0 0.00 0.00 0.00 77 1011.8
20260506102813 58 113 3.0 8.0 0.00 0.00 0.00 76 1011.8
20260506101827 58 98 3.0 5.0 0.00 0.00 0.00 77 1011.8
20260506100836 58 132 2.0 5.0 0.00 0.00 0.00 77 1011.5
20260506095829 58 124 2.0 5.0 0.00 0.00 0.00 78 1011.1
20260506094838 58 118 2.0 4.0 0.00 0.00 0.00 78 1011.1
20260506093838 58 145 3.0 6.0 0.00 0.00 0.00 78 1010.8
20260506091808 59 56 2.0 4.0 0.00 0.00 0.00 79 1011.1
20260506085844 59 181 2.0 4.0 0.00 0.00 0.00 79 1010.8
20260506084840 59 190 3.0 6.0 0.00 0.00 0.00 79 1011.1
20260506083814 59 219 2.0 4.0 0.00 0.00 0.00 79 1010.8
20260506082848 59 185 3.0 4.0 0.00 0.00 0.00 79 1010.8
20260506081847 60 251 3.0 5.0 0.00 0.00 0.00 79 1010.4
20260506080830 60 113 2.0 5.0 0.00 0.00 0.00 80 1010.8
20260506071807 61 128 2.0 4.0 0.00 0.00 0.00 80 1010.4
20260506070846 61 156 2.0 4.0 0.00 0.00 0.00 80 1010.1
20260506060831 62 125 3.0 5.0 0.00 0.00 0.00 79 1010.1
20260506050831 64 60 3.0 9.0 0.00 0.00 0.00 78 1010.1
20260506044817 64 156 3.0 6.0 0.00 0.00 0.00 78 1010.1
20260506043808 65 128 2.0 6.0 0.00 0.00 0.00 77 1010.1